Overview Statistics Trail Chart Weather Telemetry Raw packets
 

This is the latest recevied weather packets stored in our database for station/object 4S6DRJ-13. If no packets are shown the sender has not sent any weather packets the latest 10 day(s).

<< 4 5 6 7 8 9 10 >>
Time Temp. Humidity Pressure Rain* Wind** Luminosity Snow
1788436080 29.44° C 77% 1007.8 hPa 0 mm 0.89 m/s, 226° 70 W/m² -
1788436020 29.44° C 77% 1007.7 hPa 0 mm 0.89 m/s, 226° 77 W/m² -
1788435959 29.44° C 77% 1007.6 hPa 0 mm 1.79 m/s, 227° 78 W/m² -
1788435897 29.44° C 77% 1007.5 hPa 0 mm 1.79 m/s, 332° 83 W/m² -
1788435836 29.44° C 77% 1007.6 hPa 0 mm 1.34 m/s, 255° 89 W/m² -
1788435775 29.44° C 76% 1007.6 hPa 0 mm 0.89 m/s, 196° 95 W/m² -
1788435714 29.44° C 76% 1007.5 hPa 0 mm 2.24 m/s, 229° 99 W/m² -
1788435653 29.44° C 76% 1007.5 hPa 0 mm 1.34 m/s, 163° 100 W/m² -
1788435592 29.44° C 76% 1007.6 hPa 0 mm 2.24 m/s, 305° 99 W/m² -
1788435531 29.44° C 77% 1007.5 hPa 0 mm 1.79 m/s, 252° 97 W/m² -
1788435470 29.44° C 76% 1007.4 hPa 0 mm 1.79 m/s, 137° 99 W/m² -
1788435409 29.44° C 76% 1007.4 hPa 0 mm 1.34 m/s, 311° 103 W/m² -
1788435348 29.44° C 76% 1007.6 hPa 0 mm 0.45 m/s, 223° 107 W/m² -
1788435287 29.44° C 76% 1007.4 hPa 0 mm 1.79 m/s, 195° 121 W/m² -
1788435225 29.44° C 76% 1007.5 hPa 0 mm 1.34 m/s, 345° 132 W/m² -
1788435164 29.44° C 77% 1007.4 hPa 0 mm 0 m/s 134 W/m² -
1788435103 29.44° C 77% 1007.3 hPa 0 mm 1.34 m/s, 255° 138 W/m² -
1788435042 29.44° C 76% 1007.5 hPa 0 mm 1.34 m/s, 276° 143 W/m² -
1788434982 29.44° C 76% 1007.4 hPa 0 mm 2.24 m/s, 285° 144 W/m² -
1788434921 29.44° C 76% 1007.4 hPa 0 mm 0.45 m/s, 255° 150 W/m² -
1788434859 29.44° C 76% 1007.2 hPa 0 mm 1.34 m/s, 74° 147 W/m² -
1788434798 29.44° C 76% 1007.4 hPa 0 mm 0.89 m/s, 211° 148 W/m² -
1788434737 29.44° C 76% 1007.3 hPa 0 mm 1.34 m/s, 251° 150 W/m² -
1788434676 29.44° C 76% 1007.2 hPa 0 mm 0.89 m/s, 10° 147 W/m² -
1788434615 29.44° C 77% 1007.3 hPa 0 mm 1.79 m/s, 249° 140 W/m² -

* Rain latest hour (hover to see other rain measurements)
** Current wind speed in m/s (hover to see current wind gust speed)